Home > Weather > Port Harcourt > Past weeks

Flag for Nigeria Past Weather in Port Harcourt, Nigeria — Yesterday and Last 2 Weeks

Now
84 °F

Passing clouds.


Feels Like: 92 °F
Forecast: 72 / 90 °F
Wind: 3 mph from West

Location: Malabo/Fernando Poo

Current Time: May 30, 2016 at 7:34:32 PM

Latest Report: May 30, 2016 at 6:00 PM


Visibility: N/A

Pressure: 29.86 "Hg

Humidity: 74%

Dew Point: 75 °F

Location of Port HarcourtLocation

Past Weather in Port Harcourt — Graph

°F

Port Harcourt Temperature Yesterday

Maximum temperature yesterday: 81 °F (at 12:00 AM)
Minimum temperature yesterday: 73 °F (at 10:00 PM)
Average temperature yesterday: 77 °F

High & Low Weather Summary for the Past Weeks

 TemperatureHumidityPressure
High90 °F (May 21, 2:00 PM)94% (May 15, 7:00 PM)30.07 "Hg (May 15, 7:00 PM)
Low72 °F (May 30, 1:00 AM)62% (May 19, 10:00 AM)29.80 "Hg (May 21, 4:00 PM)
Average80 °F85%29.93 "Hg
* Reported May 15 6:00 PM — May 30 6:00 PM, Port Harcourt, Weather by CustomWeather, © 2016

Note: Actual official high and low records may vary slightly from our data, if they occured in-between our weather recording intervals... More about our weather records

Advertising

Port Harcourt Weather History for the Previous 24 Hours

Scroll right to see more
 ConditionsComfort  
Time TempWeatherWind HumidityBarometerVisibility
6:00 PM
Mon, May 30
84 °FPassing clouds.3 mph74%29.86 "HgN/A
5:00 PM86 °FPassing clouds.3 mph70%29.86 "HgN/A
4:00 PM82 °FPassing clouds.3 mph79%29.86 "HgN/A
3:00 PM82 °FLight rain. Broken clouds.6 mph79%29.89 "HgN/A
2:00 PM84 °FScattered clouds.7 mph74%29.89 "HgN/A
1:00 PM86 °FScattered clouds.13 mph75%29.92 "HgN/A
12:00 PM86 °FScattered clouds.12 mph75%29.95 "HgN/A
11:00 AM86 °FScattered clouds.10 mph70%29.95 "HgN/A
10:00 AM86 °FPartly sunny.7 mph75%29.95 "HgN/A
9:00 AM82 °FPartly sunny.5 mph79%29.98 "HgN/A
8:00 AM77 °FPartly sunny.No wind89%29.95 "HgN/A
7:00 AM73 °FPassing clouds.3 mph94%29.95 "HgN/A
6:00 AM73 °FPassing clouds.2 mph89%29.92 "HgN/A
5:00 AM73 °FPassing clouds.2 mph89%29.92 "HgN/A
4:00 AM73 °FPassing clouds.3 mph89%29.89 "HgN/A
3:00 AM73 °FPassing clouds.5 mph89%29.92 "HgN/A
2:00 AM72 °FPassing clouds.3 mph94%29.92 "HgN/A
1:00 AM72 °FPassing clouds.No wind94%29.95 "HgN/A
12:00 AM73 °FPassing clouds.2 mph89%29.95 "HgN/A
11:00 PM
Sun, May 29
73 °FPassing clouds.5 mph89%29.95 "HgN/A
10:00 PM73 °FPassing clouds.3 mph94%29.95 "HgN/A
9:00 PM75 °FPassing clouds.5 mph89%29.95 "HgN/A
8:00 PM75 °FPartly cloudy.3 mph89%29.95 "HgN/A
7:00 PM77 °FPartly cloudy.5 mph89%29.92 "HgN/A
Weather by CustomWeather, © 2016

See weather overviewHow to use our weather pages